MST,Max TemperatureF,Mean TemperatureF,Min TemperatureF,Max Dew PointF,MeanDew PointF,Min DewpointF,Max Humidity, Mean Humidity, Min Humidity, Max Sea Level PressureIn, Mean Sea Level PressureIn, Min Sea Level PressureIn, Max VisibilityMiles, Mean VisibilityMiles, Min VisibilityMiles, Max Wind SpeedMPH, Mean Wind SpeedMPH, Max Gust SpeedMPH,PrecipitationIn, CloudCover, Events, WindDirDegrees
2013-2-1,39,32,26,34,25,21,93,84,75,30.45,30.35,30.27,10,2,0,7,2,,0.00,6,,315
2013-2-2,32,28,24,28,25,19,93,86,80,30.53,30.47,30.39,3,1,0,12,3,,0.00,8,,337
2013-2-3,32,31,30,28,27,25,93,84,80,30.39,30.32,30.26,10,5,0,7,3,,0.00,8,,50
2013-2-4,33,32,30,27,26,25,86,81,75,30.27,30.20,30.11,10,4,2,6,2,,0.00,8,,170
2013-2-5,35,32,30,30,27,27,87,81,75,30.10,30.02,29.94,10,5,0,10,2,,0.00,8,,326
2013-2-6,42,35,28,30,27,25,86,80,57,30.19,30.12,30.03,10,6,0,10,3,,0.00,5,,327
2013-2-7,46,37,28,30,26,23,86,66,53,30.08,29.96,29.90,10,9,0,21,9,25,0.00,3,,193
2013-2-8,44,37,30,28,25,21,86,68,49,29.95,29.90,29.84,10,9,2,25,13,29,0.01,3,,306
2013-2-9,42,35,28,27,23,19,70,61,49,30.01,29.93,29.89,10,10,10,25,18,32,0.00,2,,308
2013-2-10,44,37,30,25,22,19,75,58,39,30.15,30.09,30.01,10,10,10,21,11,26,0.00,0,,316
2013-2-11,44,32,21,25,21,16,80,64,46,30.23,30.19,30.15,10,10,10,15,7,,0.00,0,,344
2013-2-12,46,36,26,30,25,21,86,68,50,30.38,30.32,30.24,10,10,7,12,2,,0.00,6,,4
2013-2-13,53,42,30,34,28,25,86,64,44,30.35,30.30,30.25,10,10,5,18,6,23,0.00,4,,351
2013-2-14,50,40,30,28,26,23,80,60,40,30.49,30.43,30.33,10,10,10,14,8,20,0.00,1,,317
2013-2-15,51,40,28,34,27,21,80,65,44,30.52,30.46,30.36,10,10,10,12,4,,0.00,1,,316
2013-2-16,57,42,28,34,27,21,75,58,36,30.36,30.18,29.96,10,10,10,21,8,21,0.01,1,,150
2013-2-17,46,37,26,30,21,18,75,54,34,30.12,30.08,30.03,10,10,10,16,9,23,0.00,1,,308
2013-2-18,46,35,24,23,18,16,74,51,29,30.11,29.98,29.76,10,10,10,24,9,30,0.00,1,,136
2013-2-19,39,34,30,32,23,18,81,62,45,29.78,29.72,29.68,10,10,6,26,13,34,0.04,5,,225
2013-2-20,44,35,26,25,20,16,80,58,34,29.95,29.87,29.78,10,10,10,22,12,29,0.00,0,,309
2013-2-21,42,32,21,25,19,16,80,57,42,30.08,30.04,29.95,10,10,10,13,7,,0.00,4,,310
2013-2-22,46,37,28,34,26,21,81,65,43,30.14,30.04,29.83,10,10,9,15,5,17,0.16,7,,145
2013-2-23,42,35,28,34,24,19,87,64,46,30.22,30.01,29.78,10,10,1,20,12,38,0.14,5,Thunderstorm,305
2013-2-24,44,34,24,25,21,18,74,59,39,30.36,30.28,30.22,10,10,10,16,7,,0.00,0,,306
2013-2-25,41,34,26,28,23,18,80,69,60,30.21,30.13,30.09,10,9,2,20,8,24,0.00,4,,142
2013-2-26,42,32,21,25,20,16,80,62,36,30.36,30.30,30.19,10,10,5,10,4,,0.00,1,,24
2013-2-27,48,36,24,23,19,16,74,54,32,30.41,30.35,30.32,10,10,10,18,8,20,0.00,1,,143
2013-2-28,46,40,33,37,27,19,87,63,45,30.50,30.40,30.32,10,9,2,14,6,,0.03,7,,160